{"data":{"norad_id":55647,"epoch":"2026-05-24T23:42:45.634752Z","epoch_age_seconds":73403,"freshness":"FRESH","line1":"1 55647U 23021V   26144.98802818  .00000752  00000+0  70848-4 0  9990","line2":"2 55647  69.9996 351.9400 0002674 267.8117  92.2736 14.98331444180223","mean_motion":14.98331444,"eccentricity":0.0002674,"inclination_deg":69.9996,"raan_deg":351.94,"arg_perigee_deg":267.8117,"mean_anomaly_deg":92.2736,"bstar":7.0848e-5,"rev_number":18022,"period_min":96.106906503659,"perigee_km":570.19294511214,"apogee_km":573.9099058821,"semimajor_km":6950.1884254971,"source":"CELESTRAK","updated_at":"2026-05-25T13:38:17.850068Z"}}